Regional Weather Roundup
Issued by NWS Columbia, SC

Current Version | Previous Version | Text Only | Print | Product List | Glossary On
Versions: 1 2 3 4 5 6 7 8 9 10 11 12 13 14 15 16 17 18 19 20 21 22 23 24 25 26 27
000
ASUS42 KCAE 191210
RWRCAE
REGIONAL WEATHER ROUNDUP
NATIONAL WEATHER SERVICE COLUMBIA SC
800 AM EDT THU OCT 19 2017

NOTE: "FAIR" INDICATES FEW OR NO CLOUDS BELOW 12,000 FEET WITH NO
SIGNIFICANT WEATHER AND/OR OBSTRUCTIONS TO VISIBILITY.

NOT ALL STATIONS ARE QUALITY CONTROLLED BY THE NATIONAL
WEATHER SERVICE. USE DATA WITH CAUTION...ESPECIALLY
DEWPOINT OBSERVATIONS.

SCZ001>056-GAZ040-063>065-077-191300-
...UPSTATE SOUTH CAROLINA...

CITY           SKY/WX    TMP DP  RH WIND       PRES   REMARKS
ANDERSON       CLEAR     43  41  93 CALM      30.31R
6HR MIN TEMP:  40; 6HR MAX TEMP:  50;

LIBERTY        SUNNY     36  36 100 CALM      30.30S
6HR MIN TEMP:  35; 6HR MAX TEMP:  41;

SPARTANBURG    CLEAR     41  39  93 CALM      30.30S
CLEMSON        FOG       47  47 100 N3        30.31S VSB 1/4
6HR MIN TEMP:  45; 6HR MAX TEMP:  50;

GREENVILLE     CLEAR     43  39  86 CALM      30.31S
6HR MIN TEMP:  43; 6HR MAX TEMP:  49;

GREENWOOD      CLEAR     40  40 100 CALM      30.32R
6HR MIN TEMP:  39; 6HR MAX TEMP:  43;

GREER          CLEAR     44  42  93 CALM      30.31S
6HR MIN TEMP:  42; 6HR MAX TEMP:  47;

ROCK HILL      CLEAR     41  41 100 CALM      30.31R FOG
6HR MIN TEMP:  38; 6HR MAX TEMP:  43;

CHESTER        SUNNY     37  37 100 N3        30.31S
LAURENS        SUNNY     39  37  93 N5        30.30S


...CENTRAL SOUTH CAROLINA...

CITY           SKY/WX    TMP DP  RH WIND       PRES   REMARKS
COLUMBIA APT   PTCLDY    43  42  97 CALM      30.28R
6HR MIN TEMP:  42; 6HR MAX TEMP:  47;

MCENTIRE ANGB  PTCLDY    48  43  81 CALM      30.28R
6HR MIN TEMP:  44; 6HR MAX TEMP:  51;

ORANGEBURG     CLEAR     47  45  93 CALM      30.27R
6HR MIN TEMP:  45; 6HR MAX TEMP:  50;

SUMTER SHAW    CLEAR     50  43  78 N5        30.26R
6HR MIN TEMP:  47; 6HR MAX TEMP:  51;

NEWBERRY       SUNNY     43  41  93 N5        30.33R
AIKEN          FAIR      45  43  93 CALM      30.31S
BARNWELL         N/A     50  45  81 CALM      30.27S
MANNING        DRZL/FOG  50  50 100 MISG      30.26S VSB<1/4
CAMDEN         FAIR      46  43  87 CALM      30.30R
LANCASTER      SUNNY     39  39 100 CALM      30.31R
WINNSBORO      SUNNY     45  41  87 NE6       30.28S


...EASTERN AND COASTAL SOUTH CAROLINA...

CITY           SKY/WX    TMP DP  RH WIND       PRES   REMARKS
MYRTLE BEACH   CLEAR     58  54  86 N8        30.25S
6HR MIN TEMP:  57; 6HR MAX TEMP:  58;

N MYRTLE BCH   CLEAR     57  54  89 N8        30.24R
6HR MIN TEMP:  56; 6HR MAX TEMP:  59;

CONWAY         FAIR      55  54  94 N5        30.25S
MARION         FAIR     N/A N/A N/A N3        30.27S
HARTSVILLE     FAIR      48  45  87 N3        30.29R
FLORENCE       CLEAR     50  48  93 N5        30.28R
6HR MIN TEMP:  49; 6HR MAX TEMP:  52;

DARLINGTON     CLEAR     47  45  93 N6        30.29S
6HR MIN TEMP:  45; 6HR MAX TEMP:  47;

CHARLESTON APT CLEAR     57  53  86 N7        30.23R
6HR MIN TEMP:  55; 6HR MAX TEMP:  58;

MOUNT PLEASANT FAIR      57  54  88 N3        30.23S
WALTERBORO     SUNNY     52  50  93 N3        30.25S
BEAUFORT       CLEAR     58  55  90 NE6       30.23S
6HR MIN TEMP:  57; 6HR MAX TEMP:  61;



...EASTERN GEORGIA...

CITY           SKY/WX    TMP DP  RH WIND       PRES   REMARKS
AUGUSTA BUSH F CLEAR     47  43  86 N6        30.28S
6HR MIN TEMP:  44; 6HR MAX TEMP:  48;

AUGUSTA DANIEL CLEAR     49  42  77 N7        30.29R
6HR MIN TEMP:  49; 6HR MAX TEMP:  57;

THOMSON        CLEAR     40  38  93 CALM      30.35R
6HR MIN TEMP:  39; 6HR MAX TEMP:  42;

WASHINGTON     FAIR      43  41  93 CALM      30.30R
CLAXTON        FAIR      53  52  97 CALM      30.24S
6HR MIN TEMP:  52; 6HR MAX TEMP:  55;

SYLVANIA       SUNNY     51  48  91 CALM      30.26R
6HR MIN TEMP:  51; 6HR MAX TEMP:  56;

STATESBORO     CLEAR     51  46  82 CALM      30.25R
6HR MIN TEMP:  51; 6HR MAX TEMP:  55;

SAVANNAH       PTCLDY    56  54  93 N5        30.23R
6HR MIN TEMP:  56; 6HR MAX TEMP:  61;



...SOUTHERN NORTH CAROLINA...

CITY           SKY/WX    TMP DP  RH WIND       PRES   REMARKS
CHARLOTTE      PTCLDY    42  42 100 NW3       30.31S
6HR MIN TEMP:  39; 6HR MAX TEMP:  47;

MONROE         CLEAR     42  39  89 CALM      30.30R
6HR MIN TEMP:  40; 6HR MAX TEMP:  45;

WADESBORO      SUNNY     36  35  94 CALM      30.31S
RUTHERFORDTON  CLEAR     40  40 100 NW3       30.32S
ASHEVILLE      FOG       38  37  97 CALM      30.35R VSB 1/4
6HR MIN TEMP:  37; 6HR MAX TEMP:  43;


$$




USA.gov is the U.S. government's official web portal to all federal, state and local government web resources and services.